,,PA_Meas_PMT16A,,PR_Meas_QMR101_102,,RH_Meas_QMH101,,SR_Meas_QMS101,,TA_Meas_QMH101,,GenWind,,GenWind,
time,status,PA,status,PR,status,RH,status,SR,status,TA,status,DirAvg,status,SpdAvg,
2013-07-02, 00:00:04,VALID,917.408,VALID,0,VALID,91.7783,VALID,0,VALID,20.5999,VALID,349,VALID,0,
2013-07-02, 00:01:04,VALID,917.389,VALID,0,VALID,91.5267,VALID,0,VALID,20.5999,VALID,337,VALID,0,
2013-07-02, 00:02:04,VALID,917.403,VALID,0,VALID,91.4581,VALID,0,VALID,20.5804,VALID,333,VALID,0,
2013-07-02, 00:03:04,VALID,917.393,VALID,0,VALID,91.5877,VALID,0,VALID,20.5999,VALID,332,VALID,0,
2013-07-02, 00:04:04,VALID,917.425,VALID,0,VALID,91.7707,VALID,0,VALID,20.6194,VALID,332,VALID,0,
2013-07-02, 00:05:04,VALID,917.438,VALID,0,VALID,91.6563,VALID,0,VALID,20.5999,VALID,332,VALID,0,
2013-07-02, 00:06:04,VALID,917.431,VALID,0,VALID,91.6411,VALID,0,VALID,20.6194,VALID,332,VALID,0,
2013-07-02, 00:07:04,VALID,917.448,VALID,0,VALID,91.4734,VALID,0,VALID,20.5999,VALID,344,VALID,0,
2013-07-02, 00:08:04,VALID,917.455,VALID,0,VALID,91.4581,VALID,0,VALID,20.5804,VALID,344,VALID,0,
2013-07-02, 00:09:04,VALID,917.437,VALID,0,VALID,91.5496,VALID,0,VALID,20.5609,VALID,343,VALID,0,
2013-07-02, 00:10:04,VALID,917.461,VALID,0,VALID,91.8012,VALID,0,VALID,20.5625,VALID,342,VALID,0,
2013-07-02, 00:11:04,VALID,917.426,VALID,0,VALID,91.8698,VALID,0,VALID,20.5219,VALID,355,VALID,0,
2013-07-02, 00:12:04,VALID,917.414,VALID,0,VALID,91.9994,VALID,0,VALID,20.5219,VALID,1,VALID,0,
2013-07-02, 00:13:04,VALID,917.402,VALID,0,VALID,92.0832,VALID,0,VALID,20.5219,VALID,2,VALID,0,
2013-07-02, 00:14:04,VALID,917.376,VALID,0,VALID,92.2281,VALID,0,VALID,20.5219,VALID,2,VALID,0,
2013-07-02, 00:15:04,VALID,917.35,VALID,0,VALID,92.19,VALID,0,VALID,20.5219,VALID,338,VALID,0,
2013-07-02, 00:16:04,VALID,917.331,VALID,0,VALID,92.1442,VALID,0,VALID,20.5024,VALID,360,VALID,0,
2013-07-02, 00:17:04,VALID,917.331,VALID,0,VALID,92.2281,VALID,0,VALID,20.5219,VALID,350,VALID,0,
2013-07-02, 00:18:04,VALID,917.36,VALID,0,VALID,92.3577,VALID,0,VALID,20.5024,VALID,11,VALID,0,
2013-07-02, 00:19:04,VALID,917.344,VALID,0,VALID,92.2891,VALID,0,VALID,20.4829,VALID,327,VALID,0,
2013-07-02, 00:20:04,VALID,917.315,VALID,0,VALID,92.5254,VALID,0,VALID,20.4634,VALID,337,VALID,0,
2013-07-02, 00:21:04,VALID,917.315,VALID,0,VALID,92.594,VALID,0,VALID,20.4439,VALID,354,VALID,0,
2013-07-02, 00:22:04,VALID,917.311,VALID,0,VALID,92.9523,VALID,0,VALID,20.4634,VALID,346,VALID,0,
2013-07-02, 00:23:04,VALID,917.286,VALID,0,VALID,92.7236,VALID,0,VALID,20.4439,VALID,358,VALID,0,
2013-07-02, 00:24:04,VALID,917.282,VALID,0,VALID,92.8075,VALID,0,VALID,20.4049,VALID,357,VALID,0,
2013-07-02, 00:25:04,VALID,917.286,VALID,0,VALID,92.8989,VALID,0,VALID,20.4244,VALID,358,VALID,0,
2013-07-02, 00:26:04,VALID,917.284,VALID,0,VALID,92.9066,VALID,0,VALID,20.3854,VALID,355,VALID,0,
2013-07-02, 00:27:04,VALID,917.247,VALID,0,VALID,93.0133,VALID,0,VALID,20.3674,VALID,354,VALID,0,
2013-07-02, 00:28:04,VALID,917.248,VALID,0,VALID,93.1581,VALID,0,VALID,20.3659,VALID,2,VALID,0,
2013-07-02, 00:29:04,VALID,917.232,VALID,0,VALID,93.2039,VALID,0,VALID,20.3659,VALID,359,VALID,0,
2013-07-02, 00:30:04,VALID,917.227,VALID,0,VALID,93.2954,VALID,0,VALID,20.3674,VALID,17,VALID,0,
2013-07-02, 00:31:04,VALID,917.22,VALID,0,VALID,93.2115,VALID,0,VALID,20.3659,VALID,4,VALID,0,
2013-07-02, 00:32:04,VALID,917.204,VALID,0,VALID,93.303,VALID,0,VALID,20.3659,VALID,343,VALID,0,
2013-07-02, 00:33:04,VALID,917.195,VALID,0,VALID,93.3487,VALID,0,VALID,20.3659,VALID,19,VALID,0,
2013-07-02, 00:34:04,VALID,917.174,VALID,0,VALID,93.2268,VALID,0,VALID,20.3674,VALID,346,VALID,0,
2013-07-02, 00:35:04,VALID,917.151,VALID,0,VALID,93.5088,VALID,0,VALID,20.3674,VALID,344,VALID,0,
2013-07-02, 00:36:04,VALID,917.133,VALID,0,VALID,93.4555,VALID,0,VALID,20.3659,VALID,352,VALID,0,
2013-07-02, 00:37:04,VALID,917.103,VALID,0,VALID,93.3792,VALID,0,VALID,20.3284,VALID,15,VALID,0,
2013-07-02, 00:38:04,VALID,917.138,VALID,0,VALID,93.4707,VALID,0,VALID,20.3284,VALID,347,VALID,0,
2013-07-02, 00:39:04,VALID,917.09,VALID,0,VALID,93.5851,VALID,0,VALID,20.2894,VALID,1,VALID,0,
2013-07-02, 00:40:04,VALID,917.092,VALID,0,VALID,93.6308,VALID,0,VALID,20.2278,VALID,356,VALID,0,
2013-07-02, 00:41:04,VALID,917.075,VALID,0,VALID,93.8366,VALID,0,VALID,20.2489,VALID,2,VALID,0,
2013-07-02, 00:42:04,VALID,917.04,VALID,0,VALID,93.829,VALID,0,VALID,20.2309,VALID,334,VALID,0,
2013-07-02, 00:43:04,VALID,917.014,VALID,0,VALID,94.1034,VALID,0,VALID,20.2293,VALID,345,VALID,0,
2013-07-02, 00:44:04,VALID,917.037,VALID,0,VALID,93.9815,VALID,0,VALID,20.2309,VALID,343,VALID,0,
2013-07-02, 00:45:04,VALID,917.023,VALID,0,VALID,94.0348,VALID,0,VALID,20.2309,VALID,334,VALID,0,
2013-07-02, 00:46:04,VALID,916.988,VALID,0,VALID,93.9967,VALID,0,VALID,20.2098,VALID,338,VALID,0,
2013-07-02, 00:47:04,VALID,916.952,VALID,0,VALID,93.9967,VALID,0,VALID,20.1919,VALID,337,VALID,0,
2013-07-02, 00:48:04,VALID,916.966,VALID,0,VALID,94.0577,VALID,0,VALID,20.1919,VALID,4,VALID,0,
2013-07-02, 00:49:04,VALID,916.928,VALID,0,VALID,94.1339,VALID,0,VALID,20.2098,VALID,16,VALID,0,
2013-07-02, 00:50:04,VALID,916.917,VALID,0,VALID,94.1187,VALID,0,VALID,20.2098,VALID,350,VALID,0,
2013-07-02, 00:51:04,VALID,916.894,VALID,0,VALID,94.0577,VALID,0,VALID,20.1903,VALID,349,VALID,0,
2013-07-02, 00:52:04,VALID,916.918,VALID,0,VALID,94.0501,VALID,0,VALID,20.1513,VALID,347,VALID,0,
2013-07-02, 00:53:04,VALID,916.905,VALID,0,VALID,94.0501,VALID,0,VALID,20.1123,VALID,348,VALID,0,
2013-07-02, 00:54:04,VALID,916.884,VALID,0,VALID,94.073,VALID,0,VALID,20.1123,VALID,360,VALID,0,
2013-07-02, 00:55:04,VALID,916.862,VALID,0,VALID,94.233,VALID,0,VALID,20.0928,VALID,5,VALID,0,
2013-07-02, 00:56:04,VALID,916.877,VALID,0,VALID,94.3474,VALID,0,VALID,20.1139,VALID,5,VALID,0,
2013-07-02, 00:57:04,VALID,916.848,VALID,0.2,VALID,94.4541,VALID,0,VALID,20.1123,VALID,5,VALID,0,
2013-07-02, 00:58:04,VALID,916.852,VALID,0,VALID,94.5304,VALID,0,VALID,20.1123,VALID,5,VALID,0,
2013-07-02, 00:59:04,VALID,916.857,VALID,0,VALID,94.538,VALID,0,VALID,20.1123,VALID,5,VALID,0,
2013-07-02, 01:00:04,VALID,916.831,VALID,0,VALID,94.7057,VALID,0,VALID,20.1318,VALID,5,VALID,0,
2013-07-02, 01:01:04,VALID,916.863,VALID,0,VALID,94.8048,VALID,0,VALID,20.1513,VALID,5,VALID,0,
2013-07-02, 01:02:04,VALID,916.792,VALID,0,VALID,94.942,VALID,0,VALID,20.1708,VALID,5,VALID,0,
2013-07-02, 01:03:04,VALID,916.775,VALID,0,VALID,95.0335,VALID,0,VALID,20.1513,VALID,5,VALID,0,
2013-07-02, 01:04:04,VALID,916.741,VALID,0,VALID,95.1402,VALID,0.107441,VALID,20.1903,VALID,5,VALID,0,
2013-07-02, 01:05:04,VALID,916.729,VALID,0,VALID,95.2546,VALID,0,VALID,20.2504,VALID,5,VALID,0,
2013-07-02, 01:06:04,VALID,916.689,VALID,0,VALID,95.3003,VALID,0,VALID,20.2309,VALID,5,VALID,0,
2013-07-02, 01:07:04,VALID,916.665,VALID,0,VALID,95.3689,VALID,0,VALID,20.2894,VALID,5,VALID,0,
2013-07-02, 01:08:04,VALID,916.659,VALID,0,VALID,95.3842,VALID,0,VALID,20.2684,VALID,5,VALID,0,
2013-07-02, 01:09:04,VALID,916.624,VALID,0,VALID,95.4147,VALID,0,VALID,20.2489,VALID,5,VALID,0,
2013-07-02, 01:10:04,VALID,916.617,VALID,0.2,VALID,95.4985,VALID,0,VALID,20.2879,VALID,5,VALID,0,
2013-07-02, 01:11:04,VALID,916.626,VALID,0,VALID,95.5519,VALID,0,VALID,20.2879,VALID,5,VALID,0,
2013-07-02, 01:12:04,VALID,916.637,VALID,0,VALID,95.5748,VALID,0,VALID,20.2879,VALID,5,VALID,0,
2013-07-02, 01:13:04,VALID,916.629,VALID,0,VALID,95.5671,VALID,0,VALID,20.2684,VALID,5,VALID,0,
2013-07-02, 01:14:04,VALID,916.651,VALID,0,VALID,95.59,VALID,0,VALID,20.2879,VALID,5,VALID,0,
2013-07-02, 01:15:04,VALID,916.649,VALID,0,VALID,95.5748,VALID,0,VALID,20.2489,VALID,5,VALID,0,
2013-07-02, 01:16:04,VALID,916.635,VALID,0,VALID,95.6739,VALID,0,VALID,20.3074,VALID,5,VALID,0,
2013-07-02, 01:17:04,VALID,916.653,VALID,0,VALID,95.7349,VALID,0,VALID,20.3479,VALID,5,VALID,0,
2013-07-02, 01:18:04,VALID,916.604,VALID,0,VALID,95.6739,VALID,0,VALID,20.3074,VALID,5,VALID,0,
2013-07-02, 01:19:04,VALID,916.614,VALID,0,VALID,95.5595,VALID,0,VALID,20.2684,VALID,5,VALID,0,
2013-07-02, 01:20:04,VALID,916.581,VALID,0,VALID,95.4757,VALID,0,VALID,20.2293,VALID,5,VALID,0,
2013-07-02, 01:21:04,VALID,916.565,VALID,0,VALID,95.3766,VALID,0,VALID,20.1903,VALID,5,VALID,0,
2013-07-02, 01:22:04,VALID,916.543,VALID,0,VALID,95.1479,VALID,0,VALID,20.1334,VALID,5,VALID,0,
2013-07-02, 01:23:04,VALID,916.568,VALID,0,VALID,95.1783,VALID,0,VALID,20.0733,VALID,5,VALID,0,
2013-07-02, 01:24:04,VALID,916.556,VALID,0,VALID,95.2165,VALID,0,VALID,20.0944,VALID,5,VALID,0,
2013-07-02, 01:25:05,VALID,916.542,VALID,0,VALID,95.2393,VALID,0,VALID,20.0733,VALID,5,VALID,0,
2013-07-02, 01:26:05,VALID,916.522,VALID,0,VALID,95.1174,VALID,0,VALID,20.0343,VALID,5,VALID,0,
2013-07-02, 01:27:05,VALID,916.503,VALID,0,VALID,95.1555,VALID,0,VALID,20.0148,VALID,5,VALID,0,
2013-07-02, 01:28:05,VALID,916.499,VALID,0,VALID,95.125,VALID,0,VALID,20.0148,VALID,5,VALID,0,
2013-07-02, 01:29:05,VALID,916.503,VALID,0,VALID,95.1174,VALID,0,VALID,19.9953,VALID,5,VALID,0,
2013-07-02, 01:30:04,VALID,916.511,VALID,0,VALID,95.1479,VALID,0,VALID,19.9758,INVALID,360,VALID,0,
2013-07-02, 01:31:05,VALID,916.512,VALID,0,VALID,95.1479,VALID,0,VALID,19.9758,VALID,358,VALID,0,
2013-07-02, 01:32:05,VALID,916.486,VALID,0,VALID,95.0411,VALID,0,VALID,19.9368,VALID,357,VALID,0,
2013-07-02, 01:33:05,VALID,916.492,VALID,0,VALID,95.125,VALID,0,VALID,19.9173,VALID,357,VALID,0,
2013-07-02, 01:34:05,VALID,916.483,VALID,0,VALID,95.2317,VALID,0,VALID,19.9578,VALID,359,VALID,0,
2013-07-02, 01:35:05,VALID,916.44,VALID,0,VALID,95.2241,VALID,0,VALID,19.9563,VALID,10,VALID,0,
2013-07-02, 01:36:05,VALID,916.448,VALID,0,VALID,95.3384,VALID,0,VALID,20.0163,VALID,10,VALID,0,
2013-07-02, 01:37:05,VALID,916.463,VALID,0,VALID,95.3689,VALID,0,VALID,20.0148,VALID,10,VALID,0,
2013-07-02, 01:38:05,VALID,916.456,VALID,0,VALID,95.247,VALID,0,VALID,19.9968,VALID,10,VALID,0,
2013-07-02, 01:39:05,VALID,916.428,VALID,0,VALID,95.186,VALID,0,VALID,19.9578,VALID,10,VALID,0,
2013-07-02, 01:40:05,VALID,916.431,VALID,0,VALID,95.125,VALID,0,VALID,19.9368,VALID,10,VALID,0,
2013-07-02, 01:41:05,VALID,916.42,VALID,0,VALID,95.1631,VALID,0,VALID,19.9173,VALID,10,VALID,0,
2013-07-02, 01:42:05,VALID,916.405,VALID,0,VALID,95.1326,VALID,0,VALID,19.9188,VALID,10,VALID,0,
2013-07-02, 01:43:05,VALID,916.394,VALID,0,VALID,95.0869,VALID,0,VALID,19.8783,VALID,10,VALID,0,
2013-07-02, 01:44:05,VALID,916.358,VALID,0,VALID,95.125,VALID,0,VALID,19.8783,VALID,10,VALID,0,
2013-07-02, 01:45:05,VALID,916.339,VALID,0,VALID,95.1402,VALID,0,VALID,19.8783,VALID,10,VALID,0,
2013-07-02, 01:46:05,VALID,916.313,VALID,0,VALID,95.0869,VALID,0,VALID,19.8588,VALID,10,VALID,0,
2013-07-02, 01:47:05,VALID,916.289,VALID,0,VALID,95.1555,VALID,0,VALID,19.8783,VALID,10,VALID,0,
2013-07-02, 01:48:05,VALID,916.255,VALID,0,VALID,95.1631,VALID,0,VALID,19.8993,VALID,10,VALID,0,
2013-07-02, 01:49:05,VALID,916.277,VALID,0,VALID,95.125,VALID,0,VALID,19.8798,VALID,10,VALID,0,
2013-07-02, 01:50:05,VALID,916.312,VALID,0,VALID,94.9649,VALID,0,VALID,19.8603,VALID,10,VALID,0,
2013-07-02, 01:51:05,VALID,916.309,VALID,0,VALID,94.9649,VALID,0,VALID,19.8408,VALID,10,VALID,0,
2013-07-02, 01:52:05,VALID,916.298,VALID,0,VALID,94.9954,VALID,0,VALID,19.8603,VALID,352,VALID,0,
2013-07-02, 01:53:05,VALID,916.319,VALID,0,VALID,94.9954,VALID,0,VALID,19.8378,VALID,356,VALID,0,
2013-07-02, 01:54:05,VALID,916.313,VALID,0,VALID,94.8963,VALID,0,VALID,19.8588,VALID,356,VALID,0,
2013-07-02, 01:55:05,VALID,916.254,VALID,0,VALID,94.8734,VALID,0,VALID,19.8393,VALID,356,VALID,0,
2013-07-02, 01:56:05,VALID,916.259,VALID,0,VALID,94.9039,VALID,0,VALID,19.8588,INVALID,360,VALID,0,
2013-07-02, 01:57:05,VALID,916.25,VALID,0,VALID,94.8658,VALID,0.107441,VALID,19.8588,VALID,350,VALID,0,
2013-07-02, 01:58:05,VALID,916.253,VALID,0,VALID,94.8582,VALID,0,VALID,19.8588,VALID,350,VALID,0,
2013-07-02, 01:59:05,VALID,916.231,VALID,0,VALID,94.8277,VALID,0,VALID,19.8588,VALID,350,VALID,0,
2013-07-02, 02:00:05,VALID,916.215,VALID,0,VALID,94.8658,VALID,0,VALID,19.8588,VALID,350,VALID,0,
2013-07-02, 02:01:05,VALID,916.193,VALID,0,VALID,94.9115,VALID,0.107441,VALID,19.8993,VALID,350,VALID,0,
2013-07-02, 02:02:05,VALID,916.164,VALID,0,VALID,94.8505,VALID,0,VALID,19.8783,VALID,350,VALID,0,
2013-07-02, 02:03:05,VALID,916.155,VALID,0,VALID,94.9192,VALID,0,VALID,19.8588,VALID,331,VALID,0,
2013-07-02, 02:04:05,VALID,916.122,VALID,0,VALID,94.8429,VALID,0.107441,VALID,19.8588,VALID,320,VALID,0,
2013-07-02, 02:05:05,VALID,916.077,VALID,0,VALID,94.881,VALID,0,VALID,19.8783,VALID,336,VALID,0,
2013-07-02, 02:06:05,VALID,916.055,VALID,0,VALID,95.003,VALID,0.107441,VALID,19.8783,VALID,336,VALID,0,
2013-07-02, 02:07:05,VALID,916.048,VALID,0,VALID,94.9725,VALID,0,VALID,19.8783,VALID,336,VALID,0,
2013-07-02, 02:08:05,VALID,916.082,VALID,0,VALID,95.0488,VALID,0.107441,VALID,19.8588,VALID,336,VALID,0,
2013-07-02, 02:09:05,VALID,916.049,VALID,0,VALID,95.0792,VALID,0,VALID,19.8588,VALID,336,VALID,0,
2013-07-02, 02:10:05,VALID,916.03,VALID,0,VALID,95.186,VALID,0.107441,VALID,19.8798,VALID,336,VALID,0,
2013-07-02, 02:11:05,VALID,916.016,VALID,0,VALID,95.2698,VALID,0.107441,VALID,19.8588,VALID,336,VALID,0,
2013-07-02, 02:12:05,VALID,915.974,VALID,0,VALID,95.3537,VALID,0,VALID,19.8783,VALID,336,VALID,0,
2013-07-02, 02:13:05,VALID,915.986,VALID,0,VALID,95.3689,VALID,0,VALID,19.8783,VALID,336,VALID,0,
2013-07-02, 02:14:05,VALID,915.956,VALID,0,VALID,95.468,VALID,0,VALID,19.9173,VALID,336,VALID,0,
2013-07-02, 02:15:05,VALID,915.922,VALID,0,VALID,95.5138,VALID,0,VALID,19.9593,VALID,336,VALID,0,
2013-07-02, 02:16:05,VALID,915.906,VALID,0,VALID,95.5519,VALID,0,VALID,19.9773,VALID,336,VALID,0,
2013-07-02, 02:17:05,VALID,915.895,VALID,0,VALID,95.4833,VALID,0,VALID,19.9383,VALID,336,VALID,0,
2013-07-02, 02:18:05,VALID,915.854,VALID,0,VALID,95.4147,VALID,0,VALID,19.9188,VALID,336,VALID,0,
2013-07-02, 02:19:05,VALID,915.852,VALID,0,VALID,95.3689,VALID,0,VALID,19.9188,VALID,336,VALID,0,
2013-07-02, 02:20:05,VALID,915.799,VALID,0,VALID,95.2698,VALID,0,VALID,19.8798,VALID,336,VALID,0,
2013-07-02, 02:21:05,VALID,915.791,VALID,0,VALID,95.0564,VALID,0,VALID,19.8408,VALID,336,VALID,0,
2013-07-02, 02:22:05,VALID,915.783,VALID,0,VALID,94.942,VALID,0,VALID,19.7823,VALID,7,VALID,0,
2013-07-02, 02:23:05,VALID,915.76,VALID,0,VALID,94.942,VALID,0,VALID,19.8018,VALID,7,VALID,0,
2013-07-02, 02:24:05,VALID,915.714,VALID,0,VALID,94.7819,VALID,0,VALID,19.7823,VALID,7,VALID,0,
2013-07-02, 02:25:05,VALID,915.714,VALID,0,VALID,94.7286,VALID,0,VALID,19.7823,VALID,7,VALID,0,
2013-07-02, 02:26:05,VALID,915.676,VALID,0,VALID,94.66,VALID,0,VALID,19.7418,VALID,7,VALID,0,
2013-07-02, 02:27:05,VALID,915.661,VALID,0,VALID,94.6752,VALID,0,VALID,19.7838,VALID,7,VALID,0,
2013-07-02, 02:28:05,VALID,915.632,VALID,0,VALID,94.6142,VALID,0,VALID,19.7628,VALID,5,VALID,0,
2013-07-02, 02:29:05,VALID,915.607,VALID,0,VALID,94.5685,VALID,0,VALID,19.7223,VALID,5,VALID,0,
2013-07-02, 02:30:05,VALID,915.585,VALID,0,VALID,94.6371,VALID,0,VALID,19.7433,VALID,7,VALID,0,
2013-07-02, 02:31:05,VALID,915.567,VALID,0,VALID,94.6371,VALID,0,VALID,19.7238,VALID,7,VALID,0,
2013-07-02, 02:32:05,VALID,915.55,VALID,0,VALID,94.6676,VALID,0,VALID,19.7043,VALID,3,VALID,0,
2013-07-02, 02:33:05,VALID,915.53,VALID,0,VALID,94.7286,VALID,0,VALID,19.6653,VALID,3,VALID,0,
2013-07-02, 02:34:05,VALID,915.516,VALID,0,VALID,94.8277,VALID,0,VALID,19.6653,VALID,3,VALID,0,
2013-07-02, 02:35:05,VALID,915.524,VALID,0,VALID,94.881,VALID,0,VALID,19.6248,VALID,354,VALID,0,
2013-07-02, 02:36:05,VALID,915.535,VALID,0,VALID,94.9573,VALID,0,VALID,19.6068,INVALID,360,VALID,0,
2013-07-02, 02:37:05,VALID,915.512,VALID,0,VALID,95.1021,VALID,0,VALID,19.6053,VALID,354,VALID,0,
2013-07-02, 02:38:05,VALID,915.489,VALID,0,VALID,95.0869,VALID,0,VALID,19.6068,VALID,354,VALID,0,
2013-07-02, 02:39:05,VALID,915.524,VALID,0,VALID,95.1707,VALID,0,VALID,19.6068,VALID,339,VALID,0,
2013-07-02, 02:40:05,VALID,915.484,VALID,0,VALID,95.1783,VALID,0,VALID,19.5858,VALID,322,VALID,0,
2013-07-02, 02:41:05,VALID,915.47,VALID,0,VALID,95.2241,VALID,0,VALID,19.5858,VALID,322,VALID,0,
2013-07-02, 02:42:05,VALID,915.465,VALID,0,VALID,95.2012,VALID,0,VALID,19.6263,VALID,323,VALID,0,
2013-07-02, 02:43:05,VALID,915.455,VALID,0,VALID,95.1479,VALID,0,VALID,19.6068,VALID,323,VALID,0,
2013-07-02, 02:44:05,VALID,915.444,VALID,0,VALID,95.2775,VALID,0,VALID,19.6263,VALID,323,VALID,0,
2013-07-02, 02:45:05,VALID,915.411,VALID,0,VALID,95.2775,VALID,0,VALID,19.6443,VALID,323,VALID,0,
2013-07-02, 02:46:05,VALID,915.39,VALID,0,VALID,95.186,VALID,0,VALID,19.6053,VALID,323,VALID,0,
2013-07-02, 02:47:05,VALID,915.352,VALID,0,VALID,95.0792,VALID,0,VALID,19.6263,VALID,323,VALID,0,
2013-07-02, 02:48:05,VALID,915.362,VALID,0,VALID,95.1326,VALID,0,VALID,19.6053,VALID,323,VALID,0,
2013-07-02, 02:49:05,VALID,915.352,VALID,0,VALID,95.1936,VALID,0,VALID,19.6263,VALID,323,VALID,0,
2013-07-02, 02:50:05,VALID,915.326,VALID,0,VALID,95.2012,VALID,0,VALID,19.6053,VALID,323,VALID,0,
2013-07-02, 02:51:05,VALID,915.314,VALID,0,VALID,95.1555,VALID,0,VALID,19.6263,VALID,323,VALID,0,
2013-07-02, 02:52:05,VALID,915.318,VALID,0,VALID,95.1402,VALID,0,VALID,19.6068,VALID,336,VALID,0,
2013-07-02, 02:53:05,VALID,915.292,VALID,0,VALID,95.0945,VALID,0,VALID,19.5873,VALID,350,VALID,0,
2013-07-02, 02:54:05,VALID,915.273,VALID,0,VALID,95.0945,VALID,0,VALID,19.5678,VALID,349,VALID,0,
2013-07-02, 02:55:05,VALID,915.264,VALID,0,VALID,95.1936,VALID,0,VALID,19.5873,VALID,348,VALID,0,
2013-07-02, 02:56:05,VALID,915.264,VALID,0,VALID,95.247,VALID,0,VALID,19.6263,VALID,348,VALID,0,
2013-07-02, 02:57:05,VALID,915.243,VALID,0,VALID,95.2622,VALID,0,VALID,19.6263,VALID,348,VALID,0,
2013-07-02, 02:58:05,VALID,915.28,VALID,0,VALID,95.3003,VALID,0,VALID,19.6263,VALID,348,VALID,0,
2013-07-02, 02:59:05,VALID,915.306,VALID,0,VALID,95.3613,VALID,0,VALID,19.6443,VALID,346,VALID,0,
2013-07-02, 03:00:05,VALID,915.31,VALID,0,VALID,95.2393,VALID,0,VALID,19.6053,VALID,320,VALID,0,
2013-07-02, 03:01:05,VALID,915.321,VALID,0,VALID,95.0106,VALID,0,VALID,19.6068,VALID,320,VALID,0,
2013-07-02, 03:02:05,VALID,915.318,VALID,0,VALID,95.0411,VALID,0,VALID,19.5873,VALID,320,VALID,0,
2013-07-02, 03:03:05,VALID,915.342,VALID,0,VALID,95.1326,VALID,0,VALID,19.6263,VALID,320,VALID,0,
2013-07-02, 03:04:05,VALID,915.351,VALID,0,VALID,95.1402,VALID,0,VALID,19.6053,VALID,320,VALID,0,
2013-07-02, 03:05:05,VALID,915.352,VALID,0,VALID,95.247,VALID,0,VALID,19.6263,VALID,320,VALID,0,
2013-07-02, 03:06:05,VALID,915.324,VALID,0,VALID,95.3079,VALID,0,VALID,19.6053,VALID,320,VALID,0,
2013-07-02, 03:07:05,VALID,915.305,VALID,0,VALID,95.3766,VALID,0,VALID,19.6653,VALID,320,VALID,0,
2013-07-02, 03:08:05,VALID,915.299,VALID,0,VALID,95.4071,VALID,0,VALID,19.6278,VALID,320,VALID,0,
2013-07-02, 03:09:05,VALID,915.296,VALID,0,VALID,95.3842,VALID,0,VALID,19.6068,VALID,320,VALID,0,
2013-07-02, 03:10:05,VALID,915.28,VALID,0,VALID,95.4604,VALID,0,VALID,19.6068,VALID,320,VALID,0,
2013-07-02, 03:11:05,VALID,915.252,VALID,0,VALID,95.3994,VALID,0,VALID,19.5858,VALID,328,VALID,0,
2013-07-02, 03:12:05,VALID,915.258,VALID,0,VALID,95.3384,VALID,0,VALID,19.5678,VALID,328,VALID,0,
2013-07-02, 03:13:05,VALID,915.242,VALID,0,VALID,95.3003,VALID,0,VALID,19.5678,VALID,328,VALID,0,
2013-07-02, 03:14:05,VALID,915.221,VALID,0,VALID,95.3003,VALID,0,VALID,19.5678,VALID,328,VALID,0,
2013-07-02, 03:15:05,VALID,915.23,VALID,0,VALID,95.2241,VALID,0,VALID,19.5483,VALID,328,VALID,0,
2013-07-02, 03:16:05,VALID,915.218,VALID,0,VALID,95.2317,VALID,0,VALID,19.5468,VALID,328,VALID,0,
2013-07-02, 03:17:05,VALID,915.216,VALID,0,VALID,95.2775,VALID,0,VALID,19.5678,VALID,328,VALID,0,
2013-07-02, 03:18:05,VALID,915.25,VALID,0,VALID,95.2698,VALID,0,VALID,19.5678,VALID,13,VALID,0,
2013-07-02, 03:19:05,VALID,915.23,VALID,0,VALID,95.064,VALID,0,VALID,19.5483,VALID,13,VALID,0,
2013-07-02, 03:20:05,VALID,915.23,VALID,0,VALID,94.7514,VALID,0,VALID,19.4508,VALID,10,VALID,0,
2013-07-02, 03:21:05,VALID,915.253,VALID,0,VALID,94.7972,VALID,0,VALID,19.4313,VALID,4,VALID,0,
2013-07-02, 03:22:05,VALID,915.252,VALID,0,VALID,94.7743,VALID,0,VALID,19.4103,VALID,3,VALID,0,
2013-07-02, 03:23:05,VALID,915.239,VALID,0,VALID,94.7972,VALID,0,VALID,19.4103,VALID,3,VALID,0,
2013-07-02, 03:24:05,VALID,915.233,VALID,0,VALID,94.7591,VALID,0,VALID,19.4703,VALID,3,VALID,0,
2013-07-02, 03:25:05,VALID,915.245,VALID,0,VALID,94.5761,VALID,0,VALID,19.4298,VALID,3,VALID,0,
2013-07-02, 03:26:05,VALID,915.21,VALID,0,VALID,94.3321,VALID,0,VALID,19.4118,VALID,3,VALID,0,
2013-07-02, 03:27:05,VALID,915.25,VALID,0,VALID,94.2864,VALID,0,VALID,19.4313,VALID,3,VALID,0,
2013-07-02, 03:28:05,VALID,915.239,VALID,0,VALID,94.1111,VALID,0,VALID,19.4118,VALID,3,VALID,0,
2013-07-02, 03:29:05,VALID,915.294,VALID,0,VALID,94.1949,VALID,0,VALID,19.4508,VALID,4,VALID,0,
2013-07-02, 03:30:05,VALID,915.3,VALID,0,VALID,94.2407,VALID,0,VALID,19.4898,VALID,4,VALID,0,
2013-07-02, 03:31:05,VALID,915.328,VALID,0,VALID,94.0501,VALID,0,VALID,19.4898,VALID,4,VALID,0,
2013-07-02, 03:32:05,VALID,915.335,VALID,0,VALID,93.9815,VALID,0,VALID,19.4898,VALID,4,VALID,0,
2013-07-02, 03:33:05,VALID,915.368,VALID,0,VALID,93.8747,VALID,0,VALID,19.4703,VALID,4,VALID,0,
2013-07-02, 03:34:05,VALID,915.356,VALID,0,VALID,93.8366,VALID,0,VALID,19.4118,VALID,4,VALID,0,
2013-07-02, 03:35:05,VALID,915.394,VALID,0,VALID,93.9052,VALID,0,VALID,19.4118,VALID,4,VALID,0,
2013-07-02, 03:36:05,VALID,915.402,VALID,0,VALID,93.9738,VALID,0,VALID,19.3923,VALID,4,VALID,0,
2013-07-02, 03:37:05,VALID,915.42,VALID,0,VALID,93.9815,VALID,0,VALID,19.3923,VALID,4,VALID,0,
2013-07-02, 03:38:05,VALID,915.403,VALID,0,VALID,94.0806,VALID,0,VALID,19.4132,VALID,4,VALID,0,
2013-07-02, 03:39:05,VALID,915.425,VALID,0,VALID,94.0958,VALID,0,VALID,19.3923,VALID,4,VALID,0,
2013-07-02, 03:40:05,VALID,915.434,VALID,0,VALID,93.9434,VALID,0,VALID,19.3533,VALID,4,VALID,0,
2013-07-02, 03:41:05,VALID,915.457,VALID,0,VALID,93.9129,VALID,0,VALID,19.3533,VALID,4,VALID,0,
2013-07-02, 03:42:05,VALID,915.449,VALID,0,VALID,93.9357,VALID,0,VALID,19.3143,VALID,4,VALID,0,
2013-07-02, 03:43:05,VALID,915.465,VALID,0,VALID,93.9281,VALID,0,VALID,19.3143,INVALID,360,VALID,0,
2013-07-02, 03:44:05,VALID,915.486,VALID,0,VALID,93.951,VALID,0,VALID,19.3338,VALID,4,VALID,0,
2013-07-02, 03:45:05,VALID,915.463,VALID,0,VALID,94.073,VALID,0,VALID,19.3742,VALID,4,VALID,0,
2013-07-02, 03:46:05,VALID,915.47,VALID,0,VALID,94.1873,VALID,0,VALID,19.3728,VALID,4,VALID,0,
2013-07-02, 03:47:05,VALID,915.465,VALID,0,VALID,94.1644,VALID,0,VALID,19.3728,VALID,4,VALID,0,
2013-07-02, 03:48:05,VALID,915.447,VALID,0,VALID,94.1034,VALID,0,VALID,19.4118,VALID,4,VALID,0,
2013-07-02, 03:49:05,VALID,915.44,VALID,0,VALID,93.9052,VALID,0,VALID,19.3533,VALID,4,VALID,0,
2013-07-02, 03:50:05,VALID,915.452,VALID,0,VALID,93.8671,VALID,0,VALID,19.3143,VALID,4,VALID,0,
2013-07-02, 03:51:05,VALID,915.46,VALID,0,VALID,93.9205,VALID,0,VALID,19.2753,VALID,4,VALID,0,
2013-07-02, 03:52:05,VALID,915.455,VALID,0,VALID,93.9052,VALID,0,VALID,19.2558,VALID,4,VALID,0,
2013-07-02, 03:53:05,VALID,915.446,VALID,0,VALID,93.9357,VALID,0,VALID,19.2363,VALID,4,VALID,0,
2013-07-02, 03:54:05,VALID,915.425,VALID,0,VALID,94.0043,VALID,0,VALID,19.2363,VALID,4,VALID,0,
2013-07-02, 03:55:05,VALID,915.408,VALID,0,VALID,93.9815,VALID,0,VALID,19.2363,VALID,4,VALID,0,
2013-07-02, 03:56:05,VALID,915.368,VALID,0,VALID,94.0425,VALID,0,VALID,19.2558,VALID,4,VALID,0,
2013-07-02, 03:57:05,VALID,915.398,VALID,0,VALID,94.1034,VALID,0,VALID,19.2348,VALID,4,VALID,0,
2013-07-02, 03:58:05,VALID,915.357,VALID,0,VALID,94.1187,VALID,0,VALID,19.2558,VALID,4,VALID,0,
2013-07-02, 03:59:05,VALID,915.373,VALID,0,VALID,94.1568,VALID,0,VALID,19.2558,VALID,4,VALID,0,
2013-07-02, 04:00:05,VALID,915.396,VALID,0,VALID,94.1797,VALID,0,VALID,19.2558,VALID,4,VALID,0,
2013-07-02, 04:01:05,VALID,915.388,VALID,0,VALID,94.1797,VALID,0,VALID,19.2558,VALID,4,VALID,0,